Location: Ferchesar
(52.6477°N, 12.4298°E)
Time: 09:37:01
(UTC+01:00)

Transit 2A - Pass Details

Date: 15 December 2021
Orbit: 591 x 966 km, 66.7° (Epoch: 26 January)

Event Time Altitude Azimuth Distance (km) Brightness Sun altitude
Exits shadow 07:15:34 10° 306° (NW) 2,727 8.2 -8.4°
Reaches altitude 10° 07:15:38 10° 305° (NW) 2,709 8.2 -8.4°
Maximum altitude 07:20:48 27° 251° (WSW) 1,732 7.5 -7.7°
Drops below altitude 10° 07:25:47 10° 196° (SSW) 2,589 8.9 -7.0°
Sets 07:28:34 0° 184° (S) 3,474 9.8 -6.7°
